Bay City, WI

7:24 PM CST on February 27, 2017 (GMT -0600)
Red Wing Municipal

Weather History for KRGK - May, 2014

Change the Weather History Date:

Tuesday, May 6, 2014

  Actual Average Record
Temperature  
Mean Temperature 57 °F -  
Max Temperature 66 °F 63 °F 91 °F (2016)
Min Temperature 48 °F 42 °F 30 °F (1997)
Degree Days  
Heating Degree Days 8    
Growing Degree Days 7 (Base 50)    
Moisture  
Dew Point 34 °F    
Average Humidity 40    
Maximum Humidity 58    
Minimum Humidity 30    
Precipitation  
Precipitation 0.00 in - - ()
Sea Level Pressure  
Sea Level Pressure 29.88 in    
Wind  
Wind Speed 11 mph (ESE)    
Max Wind Speed 18 mph    
Max Gust Speed 24 mph    
Visibility 10 miles    
Events      
Averages and records for this station are not official NWS values.
T = Trace of Precipitation, MM = Missing Value Source: NWS Daily Summary

Daily Weather History Graph

Daily Weather History Graph

Search for Another Location

Airport or City:

Trip Planner

Search our weather history database for the weather conditions in past years. The results will help you decide how hot, cold, wet, or windy it might be!

Date:

Astronomy

May. 06, 2014 Rise Set
Actual Time 5:53 AM CDT 8:20 PM CDT
Civil Twilight 5:20 AM CDT 8:53 PM CDT
Nautical Twilight 4:39 AM CDT 9:34 PM CDT
Astronomical Twilight 3:53 AM CDT 10:20 PM CDT
Moon 12:12 PM CDT (5/6) 1:37 AM CDT (5/6)
Length of Visible Light 15h 33m
Length of Day
14h 27m
Waxing Crescent, 46% of the Moon is Illuminated
May 6
Waxing Crescent
May 6
First Quarter
May 14
Full
May 21
Last Quarter
May 28
New

Hourly Weather History & Observations

Time (CDT) Temp. Dew Point Humidity Pressure Visibility Wind Dir Wind Speed Gust Speed Precip Events Conditions
12:15 AM 50.0 °F 32.0 °F 50% 29.96 in 10.0 mi East 4.6 mph - N/A   Clear
12:35 AM 48.2 °F 33.8 °F 58% 29.97 in 10.0 mi East 4.6 mph - N/A   Clear
12:55 AM 48.2 °F 33.8 °F 58% 29.97 in 10.0 mi East 4.6 mph - N/A   Clear
1:15 AM 48.2 °F 33.8 °F 58% 29.97 in 10.0 mi ESE 4.6 mph - N/A   Clear
1:35 AM 48.2 °F 33.8 °F 58% 29.96 in 10.0 mi East 5.8 mph - N/A   Clear
1:55 AM 50.0 °F 35.6 °F 58% 29.96 in 10.0 mi East 6.9 mph - N/A   Clear
2:15 AM 50.0 °F 33.8 °F 54% 29.96 in 10.0 mi ESE 9.2 mph - N/A   Clear
2:35 AM 51.8 °F 35.6 °F 54% 29.96 in 10.0 mi SE 10.4 mph - N/A   Clear
2:55 AM 50.0 °F 35.6 °F 58% 29.96 in 10.0 mi East 5.8 mph - N/A   Clear
6:55 AM 48.2 °F 33.8 °F 58% 29.97 in 10.0 mi East 6.9 mph - N/A   Clear
7:15 AM 50.0 °F 33.8 °F 54% 29.97 in 10.0 mi East 8.1 mph - N/A   Clear
7:35 AM 51.8 °F 33.8 °F 50% 29.98 in 10.0 mi ESE 10.4 mph 17.3 mph N/A   Clear
7:55 AM 51.8 °F 33.8 °F 50% 29.98 in 10.0 mi ESE 13.8 mph 18.4 mph N/A   Clear
8:15 AM 51.8 °F 33.8 °F 50% 29.98 in 10.0 mi ESE 15.0 mph 19.6 mph N/A   Clear
9:15 AM 53.6 °F 33.8 °F 47% 29.98 in 10.0 mi SE 15.0 mph 21.9 mph N/A   Clear
9:35 AM 55.4 °F 30.2 °F 38% 29.98 in 10.0 mi SE 17.3 mph - N/A   Clear
9:55 AM 57.2 °F 33.8 °F 41% 29.98 in 10.0 mi SE 13.8 mph 20.7 mph N/A   Clear
10:15 AM 57.2 °F 30.2 °F 36% 29.98 in 10.0 mi ESE 17.3 mph 23.0 mph N/A   Clear
10:35 AM 57.2 °F 30.2 °F 36% 29.97 in 10.0 mi SE 15.0 mph 23.0 mph N/A   Clear
10:55 AM 57.2 °F 30.2 °F 36% 29.96 in 10.0 mi ESE 17.3 mph 21.9 mph N/A   Clear
11:15 AM 60.8 °F 30.2 °F 31% 29.96 in 10.0 mi SE 15.0 mph 20.7 mph N/A   Clear
11:34 AM 60.8 °F 30.2 °F 31% 29.95 in 10.0 mi ESE 15.0 mph 21.9 mph N/A   Clear
11:55 AM 60.8 °F 30.2 °F 31% 29.92 in 10.0 mi ESE 18.4 mph - N/A   Clear
12:15 PM 62.6 °F 30.2 °F 30% 29.92 in 10.0 mi ESE 17.3 mph 23.0 mph N/A   Clear
12:35 PM 62.6 °F 30.2 °F 30% 29.91 in 10.0 mi ESE 17.3 mph 23.0 mph N/A   Clear
12:55 PM 62.6 °F 30.2 °F 30% 29.90 in 10.0 mi ESE 16.1 mph 23.0 mph N/A   Clear
1:15 PM 64.4 °F 32.0 °F 30% 29.90 in 10.0 mi ESE 12.7 mph - N/A   Clear
1:35 PM 64.4 °F 32.0 °F 30% 29.89 in 10.0 mi ESE 12.7 mph 17.3 mph N/A   Clear
1:55 PM 64.4 °F 33.8 °F 32% 29.88 in 10.0 mi SE 15.0 mph 20.7 mph N/A   Clear
2:15 PM 64.4 °F 33.8 °F 32% 29.87 in 10.0 mi SE 17.3 mph 21.9 mph N/A   Clear
2:35 PM 66.2 °F 33.8 °F 30% 29.86 in 10.0 mi SE 15.0 mph 19.6 mph N/A   Clear
2:55 PM 66.2 °F 33.8 °F 30% 29.85 in 10.0 mi SE 16.1 mph 19.6 mph N/A   Clear
3:14 PM 64.4 °F 33.8 °F 32% 29.84 in 10.0 mi SE 16.1 mph 19.6 mph N/A   Clear
3:35 PM 66.2 °F 35.6 °F 32% 29.83 in 10.0 mi SE 12.7 mph - N/A   Clear
3:55 PM 66.2 °F 35.6 °F 32% 29.81 in 10.0 mi SE 17.3 mph 24.2 mph N/A   Clear
4:15 PM 66.2 °F 35.6 °F 32% 29.81 in 10.0 mi SE 18.4 mph 23.0 mph N/A   Clear
4:35 PM 66.2 °F 35.6 °F 32% 29.80 in 10.0 mi ESE 15.0 mph - N/A   Clear
4:55 PM 64.4 °F 35.6 °F 34% 29.80 in 10.0 mi ESE 15.0 mph - N/A   Clear
5:15 PM 66.2 °F 35.6 °F 32% 29.81 in 10.0 mi SE 12.7 mph - N/A   Scattered Clouds
5:35 PM 64.4 °F 35.6 °F 34% 29.81 in 10.0 mi ESE 12.7 mph 17.3 mph N/A   Mostly Cloudy
5:54 PM 64.4 °F 35.6 °F 34% 29.81 in 10.0 mi ESE 15.0 mph 19.6 mph N/A   Overcast
6:15 PM 66.2 °F 35.6 °F 32% 29.80 in 10.0 mi ESE 15.0 mph 19.6 mph N/A   Scattered Clouds
6:35 PM 64.4 °F 35.6 °F 34% 29.81 in 10.0 mi ESE 16.1 mph 20.7 mph N/A   Mostly Cloudy
6:54 PM 64.4 °F 35.6 °F 34% 29.80 in 10.0 mi ESE 16.1 mph 20.7 mph N/A   Mostly Cloudy
7:15 PM 64.4 °F 35.6 °F 34% 29.79 in 10.0 mi ESE 11.5 mph 21.9 mph N/A   Scattered Clouds
7:35 PM 64.4 °F 35.6 °F 34% 29.79 in 10.0 mi ESE 11.5 mph - N/A   Clear
7:55 PM 62.6 °F 35.6 °F 37% 29.80 in 10.0 mi ESE 10.4 mph - N/A   Clear
8:15 PM 62.6 °F 35.6 °F 37% 29.80 in 10.0 mi ESE 10.4 mph - N/A   Clear
8:34 PM 62.6 °F 35.6 °F 37% 29.81 in 10.0 mi East 10.4 mph 19.6 mph N/A   Scattered Clouds
8:55 PM 60.8 °F 35.6 °F 39% 29.80 in 10.0 mi ESE 12.7 mph 17.3 mph N/A   Scattered Clouds
9:15 PM 60.8 °F 35.6 °F 39% 29.81 in 10.0 mi East 11.5 mph 17.3 mph N/A   Clear
9:34 PM 60.8 °F 35.6 °F 39% 29.82 in 10.0 mi East 12.7 mph 17.3 mph N/A   Mostly Cloudy
9:55 PM 60.8 °F 35.6 °F 39% 29.82 in 10.0 mi East 12.7 mph 17.3 mph N/A   Mostly Cloudy
10:15 PM 60.8 °F 35.6 °F 39% 29.83 in 10.0 mi East 11.5 mph 18.4 mph N/A   Overcast
10:35 PM 59.0 °F 35.6 °F 42% 29.83 in 10.0 mi ESE 9.2 mph - N/A   Overcast
10:55 PM 59.0 °F 35.6 °F 42% 29.82 in 10.0 mi East 10.4 mph - N/A   Overcast
11:15 PM 59.0 °F 37.4 °F 45% 29.82 in 10.0 mi East 10.4 mph 18.4 mph N/A   Overcast
11:35 PM 57.2 °F 37.4 °F 48% 29.82 in 10.0 mi East 12.7 mph - N/A   Overcast
11:55 PM 57.2 °F 35.6 °F 44% 29.81 in 10.0 mi East 12.7 mph - N/A   Overcast